Location: Moscow
(30.9132°N, 94.8252°W)
Time: 11:41:20
(UTC+00:00)

Cosmos 2061 Rocket - Pass Details

Date: 15 November 2025
Orbit: 964 x 1012 km, 82.9° (Epoch: 10 December)

Event Time Altitude Azimuth Distance (km) Brightness Sun altitude
Rises 11:18:31 0° 351° (N) 3,654 6.8 -18.9°
Reaches altitude 10° 11:21:02 10° 349° (NNW) 2,704 6.1 -18.4°
Maximum altitude 11:27:10 69° 267° (W) 1,032 3.9 -17.1°
Drops below altitude 10° 11:33:17 10° 185° (S) 2,704 6.4 -15.8°
Sets 11:35:48 0° 183° (S) 3,653 7.1 -15.3°
